When you browse on this site, cookies collect data to enhance your experience and personalize the content and advertising you see.
Visit our Privacy Policy to learn more. By continuing to use the site, you agree to this use of cookies and data.

Previsão horária em Newcastle

Hoje, 9 Julho, Quinta-feira

Tempo Temperatura Precipitação Vento Pressão Humidade
00:00 +14°C° 0 mm 2 m/s 745 mmHg 97%
01:00 +13°C° 0.8 mm 3 m/s 744 mmHg 97%
02:00 +14°C° 0.8 mm 3 m/s 744 mmHg 97%
03:00 +14°C° 0.8 mm 3 m/s 743 mmHg 97%
04:00 +14°C° 1 mm 3 m/s 743 mmHg 97%
05:00 +14°C° 1 mm 3 m/s 743 mmHg 96%
06:00 +13°C° 0 mm 3 m/s 744 mmHg 95%
07:00 +13°C° 0.1 mm 3 m/s 744 mmHg 95%
08:00 +13°C° 0.1 mm 4 m/s 745 mmHg 95%
09:00 +12°C° 0.1 mm 4 m/s 745 mmHg 94%
10:00 +12°C° 0 mm 4 m/s 745 mmHg 94%
11:00 +12°C° 0 mm 4 m/s 745 mmHg 93%
12:00 +12°C° 0 mm 4 m/s 745 mmHg 94%
13:00 +12°C° 0.1 mm 4 m/s 746 mmHg 94%
14:00 +12°C° 0.1 mm 3 m/s 746 mmHg 93%
15:00 +12°C° 0.1 mm 3 m/s 746 mmHg 92%
16:00 +12°C° 0.1 mm 3 m/s 746 mmHg 93%
17:00 +12°C° 0.1 mm 3 m/s 746 mmHg 93%
18:00 +12°C° 0.1 mm 3 m/s 746 mmHg 93%
19:00 +13°C° 0 mm 2 m/s 746 mmHg 93%
20:00 +12°C° 0 mm 2 m/s 746 mmHg 94%
21:00 +12°C° 0 mm 2 m/s 746 mmHg 94%
22:00 +12°C° 0.1 mm 2 m/s 747 mmHg 94%
23:00 +12°C° 0.1 mm 2 m/s 747 mmHg 94%

Amanhã, 10 Julho, Sexta-feira

Tempo Temperatura Precipitação Vento Pressão Humidade
00:00 +12°C° 0.1 mm 2 m/s 747 mmHg 94%
01:00 +10°C° 0 mm 3 m/s 747 mmHg 94%
02:00 +9°C° 0 mm 3 m/s 747 mmHg 93%
03:00 +7°C° 0 mm 4 m/s 747 mmHg 93%
04:00 +8°C° 0 mm 4 m/s 748 mmHg 91%
05:00 +8°C° 0 mm 5 m/s 748 mmHg 90%
06:00 +9°C° 0 mm 5 m/s 748 mmHg 88%
07:00 +10°C° 0 mm 6 m/s 748 mmHg 84%
08:00 +11°C° 0 mm 7 m/s 749 mmHg 79%
09:00 +12°C° 0 mm 8 m/s 749 mmHg 74%
10:00 +14°C° 0.1 mm 7 m/s 749 mmHg 70%
11:00 +15°C° 0.1 mm 7 m/s 750 mmHg 67%
12:00 +15°C° 0.1 mm 7 m/s 750 mmHg 64%
13:00 +15°C° 0 mm 7 m/s 750 mmHg 64%
14:00 +15°C° 0 mm 7 m/s 750 mmHg 63%
15:00 +15°C° 0 mm 7 m/s 750 mmHg 63%
16:00 +15°C° 0 mm 7 m/s 751 mmHg 65%
17:00 +14°C° 0 mm 6 m/s 751 mmHg 68%
18:00 +14°C° 0 mm 6 m/s 751 mmHg 71%
19:00 +13°C° 0 mm 5 m/s 752 mmHg 75%
20:00 +11°C° 0 mm 4 m/s 752 mmHg 80%
21:00 +10°C° 0 mm 4 m/s 753 mmHg 85%
22:00 +10°C° 0 mm 3 m/s 753 mmHg 87%
23:00 +9°C° 0 mm 3 m/s 753 mmHg 89%

Depois de amanhã, 11 Julho, Sábado

Tempo Temperatura Precipitação Vento Pressão Humidade
00:00 +9°C° 0 mm 3 m/s 754 mmHg 91%
01:00 +8°C° 0 mm 3 m/s 754 mmHg 92%
02:00 +8°C° 0 mm 3 m/s 754 mmHg 92%
03:00 +8°C° 0 mm 3 m/s 754 mmHg 93%
04:00 +8°C° 0 mm 4 m/s 754 mmHg 91%
05:00 +10°C° 0 mm 4 m/s 755 mmHg 89%
06:00 +10°C° 0 mm 4 m/s 755 mmHg 87%
07:00 +11°C° 0 mm 4 m/s 755 mmHg 82%
08:00 +13°C° 0 mm 5 m/s 755 mmHg 77%
09:00 +14°C° 0 mm 5 m/s 756 mmHg 72%
10:00 +14°C° 0 mm 5 m/s 756 mmHg 71%
11:00 +14°C° 0 mm 5 m/s 756 mmHg 70%
12:00 +15°C° 0 mm 5 m/s 756 mmHg 69%
13:00 +15°C° 0 mm 5 m/s 756 mmHg 68%
14:00 +16°C° 0 mm 5 m/s 756 mmHg 67%
15:00 +16°C° 0 mm 5 m/s 756 mmHg 65%
16:00 +15°C° 0 mm 4 m/s 756 mmHg 67%
17:00 +15°C° 0 mm 4 m/s 756 mmHg 69%
18:00 +14°C° 0 mm 4 m/s 756 mmHg 71%
19:00 +13°C° 0 mm 3 m/s 757 mmHg 75%
20:00 +12°C° 0 mm 2 m/s 757 mmHg 80%
21:00 +9°C° 0 mm 2 m/s 757 mmHg 84%
22:00 +10°C° 0 mm 1 m/s 757 mmHg 86%
23:00 +9°C° 0 mm 1 m/s 757 mmHg 87%

12 Julho, Domingo

Tempo Temperatura Precipitação Vento Pressão Humidade
00:00 +9°C° 0 mm 1 m/s 757 mmHg 88%
01:00 +9°C° 0 mm 1 m/s 757 mmHg 88%
02:00 +9°C° 0 mm 1 m/s 757 mmHg 88%
03:00 +8°C° 0 mm 1 m/s 757 mmHg 88%
04:00 +9°C° 0 mm 1 m/s 757 mmHg 87%
05:00 +10°C° 0 mm 1 m/s 757 mmHg 85%
06:00 +11°C° 0 mm 1 m/s 757 mmHg 83%
07:00 +13°C° 0 mm 1 m/s 757 mmHg 79%
08:00 +14°C° 0 mm 1 m/s 757 mmHg 75%
09:00 +16°C° 0 mm 1 m/s 758 mmHg 71%
10:00 +18°C° 0 mm 1 m/s 758 mmHg 67%
11:00 +19°C° 0 mm 1 m/s 757 mmHg 64%
12:00 +18°C° 0 mm 2 m/s 757 mmHg 60%
13:00 +19°C° 0 mm 2 m/s 757 mmHg 59%
14:00 +19°C° 0 mm 2 m/s 757 mmHg 58%
15:00 +20°C° 0 mm 2 m/s 757 mmHg 58%
16:00 +20°C° 0 mm 2 m/s 756 mmHg 62%
17:00 +19°C° 0 mm 2 m/s 756 mmHg 66%
18:00 +19°C° 0 mm 2 m/s 756 mmHg 71%
19:00 +17°C° 0 mm 2 m/s 756 mmHg 75%
20:00 +16°C° 0 mm 2 m/s 756 mmHg 79%
21:00 +14°C° 0 mm 2 m/s 756 mmHg 83%
22:00 +13°C° 0 mm 2 m/s 756 mmHg 84%
23:00 +13°C° 0 mm 1 m/s 756 mmHg 86%

13 Julho, Segunda-feira

Tempo Temperatura Precipitação Vento Pressão Humidade
00:00 +12°C° 0 mm 1 m/s 756 mmHg 87%
01:00 +12°C° 0 mm 1 m/s 755 mmHg 86%
02:00 +10°C° 0 mm 2 m/s 755 mmHg 85%
03:00 +10°C° 0 mm 2 m/s 755 mmHg 84%
04:00 +10°C° 0 mm 2 m/s 755 mmHg 82%
05:00 +11°C° 0 mm 3 m/s 754 mmHg 80%
06:00 +11°C° 0 mm 3 m/s 754 mmHg 77%
07:00 +11°C° 0.1 mm 3 m/s 754 mmHg 80%
08:00 +11°C° 0.1 mm 3 m/s 754 mmHg 83%
09:00 +11°C° 0.1 mm 3 m/s 754 mmHg 86%
10:00 +12°C° 0.1 mm 3 m/s 754 mmHg 88%
11:00 +12°C° 0.1 mm 3 m/s 754 mmHg 90%
12:00 +13°C° 0.1 mm 3 m/s 753 mmHg 92%
13:00 +14°C° 0.1 mm 3 m/s 753 mmHg 89%
14:00 +15°C° 0.1 mm 4 m/s 753 mmHg 87%
15:00 +17°C° 0.1 mm 4 m/s 753 mmHg 84%
16:00 +17°C° 0.2 mm 4 m/s 752 mmHg 86%
17:00 +17°C° 0.2 mm 3 m/s 752 mmHg 88%
18:00 +16°C° 0.2 mm 3 m/s 752 mmHg 90%
19:00 +16°C° 0 mm 3 m/s 752 mmHg 92%
20:00 +15°C° 0 mm 2 m/s 752 mmHg 94%
21:00 +14°C° 0 mm 2 m/s 752 mmHg 96%
22:00 +14°C° 0.1 mm 2 m/s 752 mmHg 96%
23:00 +14°C° 0.1 mm 1 m/s 751 mmHg 96%

14 Julho, Terça-feira

Tempo Temperatura Precipitação Vento Pressão Humidade
00:00 +14°C° 0.1 mm 1 m/s 751 mmHg 97%
01:00 +13°C° 0 mm 1 m/s 751 mmHg 97%
02:00 +13°C° 0 mm 1 m/s 750 mmHg 96%
03:00 +11°C° 0 mm 0 m/s 750 mmHg 96%
04:00 +12°C° 0 mm 0 m/s 750 mmHg 95%
05:00 +13°C° 0 mm 0 m/s 750 mmHg 94%
06:00 +13°C° 0 mm 0 m/s 750 mmHg 93%
07:00 +14°C° 0.1 mm 0 m/s 750 mmHg 90%
08:00 +16°C° 0.1 mm 1 m/s 750 mmHg 86%
09:00 +18°C° 0.1 mm 1 m/s 749 mmHg 83%
10:00 +18°C° 0.3 mm 1 m/s 749 mmHg 80%
11:00 +18°C° 0.3 mm 2 m/s 749 mmHg 78%
12:00 +18°C° 0.3 mm 2 m/s 749 mmHg 75%
13:00 +18°C° 0.2 mm 2 m/s 748 mmHg 75%
14:00 +18°C° 0.2 mm 3 m/s 748 mmHg 76%
15:00 +18°C° 0.2 mm 3 m/s 748 mmHg 76%
16:00 +18°C° 0.1 mm 3 m/s 747 mmHg 76%
17:00 +18°C° 0.1 mm 3 m/s 747 mmHg 77%
18:00 +18°C° 0.1 mm 3 m/s 747 mmHg 78%
19:00 +17°C° 0.1 mm 3 m/s 747 mmHg 82%
20:00 +14°C° 0.1 mm 3 m/s 747 mmHg 86%
21:00 +13°C° 0.1 mm 3 m/s 747 mmHg 90%
22:00 +13°C° 0.1 mm 3 m/s 747 mmHg 91%
23:00 +13°C° 0.1 mm 3 m/s 747 mmHg 93%
Mostrar mais